Location: ???? ??????? ????
(31.2176°N, 31.6797°E)
Time: 01:31:45
(UTC+00:00)

Cosmos 1386 Rocket - Pass Details

Date: 29 October 2020
Orbit: 930 x 1005 km, 83.0° (Epoch: 25 November)

Event Time Altitude Azimuth Distance (km) Brightness Sun altitude
Rises 16:35:49 0° 354° (N) 3,730 7.6 -19.5°
Reaches altitude 10° 16:38:22 10° 355° (N) 2,772 6.9 -20.1°
Maximum altitude 16:44:45 89° 80° (E) 993 4.4 -21.4°
Drops below altitude 10° 16:51:00 10° 175° (S) 2,714 6.8 -22.8°
Sets 16:53:29 0° 176° (S) 3,647 7.5 -23.3°
